User: anonymous   Login
Location: SAPM � Hemmingford
(45.0500°N, 73.5833°W)
Time: 03:15:03
(UTC-04:00)
Language:

Cosmos 1674 Rocket - Orbit

View from above orbital plane
View from above orbital plane
View from above satellite
View from above satellite

Ground track
Ground track

The orbit data is extracted from the following two-line orbital elements,

1 15945U 85069B   15144.09022136  .00000266  00000-0  29233-4 0  9997
2 15945 082.5262 120.0828 0018291 252.5462 107.3753 14.83698146609055
Epoch (UTC): 24 May 2015 02:09:55
Eccentricity: 0.0018291
inclination: 82.5262°
perigee height: 605 km
apogee height: 630 km
right ascension of ascending node: 120.0828°
argument of perigee: 252.5462°
revolutions per day: 14.83698146
mean anomaly at epoch: 107.3753°
orbit number at epoch: 60905

The dashed part of the orbit path shows where the satellite is in the earth's shadow,  

DLR